Change the Weather History Date:

Tuesday, January 8, 2013

  Actual Average Record
Temperature  
Mean Temperature 44 °F -  
Max Temperature 46 °F 42 °F 55 °F (2007)
Min Temperature 41 °F 36 °F 19 °F (1997)
Degree Days  
Heating Degree Days 22    
Moisture  
Dew Point 42 °F    
Average Humidity 92    
Maximum Humidity 100    
Minimum Humidity 80    
Precipitation  
Precipitation 0.00 in - - ()
Sea Level Pressure  
Sea Level Pressure 30.29 in    
Wind  
Wind Speed 8 mph ()    
Max Wind Speed 12 mph    
Max Gust Speed -    
Visibility 4.3 miles    
Events      
Averages and records for this station are not official NWS values.
T = Trace of Precipitation, MM = Missing Value Source: Averaged Metar Reports

Daily Weather History Graph

Daily Weather History Graph

Search for Another Location

Airport or City:

Trip Planner

Search our weather history database for the weather conditions in past years. The results will help you decide how hot, cold, wet, or windy it might be!

Date:

Astronomy

Jan. 08, 2013 Rise Set
Actual Time 8:50 AM CET 5:01 PM CET
Civil Twilight 8:12 AM CET 5:40 PM CET
Nautical Twilight 7:30 AM CET 6:22 PM CET
Astronomical Twilight 6:50 AM CET 7:02 PM CET
Moon 5:03 AM CET (1/8) 1:52 PM CET (1/8)
Length of Visible Light 9h 28m
Length of Day
8h 10m
Waning Crescent, 16% of the Moon is Illuminated
Jan 8
Waning Crescent
Jan 11
New
Jan 19
First Quarter
Jan 27
Full
Feb 3
Last Quarter

Hourly Weather History & Observations

Time (CET) Temp. Windchill Dew Point Humidity Pressure Visibility Wind Dir Wind Speed Gust Speed Precip Events Conditions
12:25 AM 41.0 °F 35.8 °F 41.0 °F 100% 30.30 in - SSW 8.1 mph - N/A   Mostly Cloudy
12:55 AM 41.0 °F 34.7 °F 41.0 °F 100% 30.30 in - SSW 10.4 mph - N/A   Mostly Cloudy
1:00 AM 42 °F - 41 °F 95% 30.33 in 3 mi SSW 8.9 mph - -   Mist
1:25 AM 42.8 °F 37.5 °F 41.0 °F 93% 30.30 in - SSW 9.2 mph - N/A   Mostly Cloudy
1:55 AM 42.8 °F 38.6 °F 41.0 °F 93% 30.30 in - SSW 6.9 mph - N/A   Mostly Cloudy
2:25 AM 42.8 °F 39.3 °F 41.0 °F 93% 30.30 in - SSW 5.8 mph - N/A   Mostly Cloudy
2:47 AM 42.8 °F 38.6 °F 41.0 °F 93% 30.30 in 3.1 mi SSW 6.9 mph - N/A   Mostly Cloudy
2:55 AM 42.8 °F 38.0 °F 41.0 °F 93% 30.30 in 3.1 mi SSW 8.1 mph - N/A   Mostly Cloudy
3:25 AM 42.8 °F 38.0 °F 41.0 °F 93% 30.30 in 3.1 mi SSW 8.1 mph - N/A   Mostly Cloudy
3:55 AM 42.8 °F 37.5 °F 41.0 °F 93% 30.30 in 3.1 mi SW 9.2 mph - N/A   Mostly Cloudy
4:00 AM 43 °F - 42 °F 92% 30.32 in 3 mi SW 8.9 mph - -   Mist
4:25 AM 42.8 °F 38.0 °F 41.0 °F 93% 30.30 in 3.1 mi SSW 8.1 mph - N/A   Mostly Cloudy
4:55 AM 42.8 °F 37.5 °F 41.0 °F 93% 30.30 in 3.7 mi SSW 9.2 mph - N/A   Mostly Cloudy
5:25 AM 42.8 °F 38.0 °F 41.0 °F 93% 30.30 in 3.7 mi SW 8.1 mph - N/A   Mostly Cloudy
5:55 AM 42.8 °F 38.0 °F 41.0 °F 93% 30.30 in 3.7 mi SW 8.1 mph - N/A   Mostly Cloudy
6:25 AM 42.8 °F 38.0 °F 41.0 °F 93% 30.30 in 3.7 mi SSW 8.1 mph - N/A   Mostly Cloudy
6:55 AM 42.8 °F 38.0 °F 41.0 °F 93% 30.30 in 3.7 mi SSW 8.1 mph - N/A   Mostly Cloudy
7:00 AM 44 °F - 42 °F 89% 30.31 in 4 mi SW 8.9 mph - -   Overcast
7:25 AM 44.6 °F 39.7 °F 41.0 °F 87% 30.30 in 3.7 mi SW 9.2 mph - N/A   Mostly Cloudy
7:55 AM 44.6 °F 39.7 °F 42.8 °F 93% 30.30 in 4.3 mi SW 9.2 mph - N/A   Mostly Cloudy
8:25 AM 44.6 °F 40.2 °F 42.8 °F 93% 30.30 in 4.3 mi SSW 8.1 mph - N/A   Mostly Cloudy
8:55 AM 44.6 °F 39.7 °F 42.8 °F 93% 30.30 in 4.3 mi SW 9.2 mph - N/A   Mostly Cloudy
9:25 AM 44.6 °F 39.2 °F 42.8 °F 93% 30.30 in 5.0 mi SSW 10.4 mph - N/A   Mostly Cloudy
10:00 AM 44 °F - 42 °F 91% 30.32 in 5 mi SSW 11.2 mph - -   Overcast
10:25 AM 44.6 °F 40.2 °F 42.8 °F 93% 30.30 in 5.0 mi SSW 8.1 mph - N/A   Mostly Cloudy
10:55 AM 44.6 °F 39.2 °F 42.8 °F 93% 30.30 in 5.0 mi SSW 10.4 mph - N/A   Mostly Cloudy
11:25 AM 44.6 °F 39.2 °F 42.8 °F 93% 30.33 in 5.6 mi SSW 10.4 mph - N/A   Mostly Cloudy
11:55 AM 44.6 °F 38.8 °F 42.8 °F 93% 30.30 in 5.6 mi SSW 11.5 mph - N/A   Mostly Cloudy
12:25 PM 44.6 °F 39.2 °F 42.8 °F 93% 30.30 in 4.3 mi SSW 10.4 mph - N/A   Mostly Cloudy
12:55 PM 44.6 °F 39.2 °F 42.8 °F 93% 30.30 in 4.3 mi SW 10.4 mph - N/A   Mostly Cloudy
1:00 PM 45 °F - 42 °F 86% 30.32 in 4 mi SW 11.2 mph - -   Mostly Cloudy
1:25 PM 46.4 °F 41.5 °F 42.8 °F 87% 30.30 in 3.7 mi SSW 10.4 mph - N/A   Mostly Cloudy
1:55 PM 46.4 °F 41.1 °F 42.8 °F 87% 30.30 in 3.7 mi SSW 11.5 mph - N/A   Mostly Cloudy
2:25 PM 46.4 °F 41.5 °F 42.8 °F 87% 30.30 in 3.7 mi SSW 10.4 mph - N/A   Mostly Cloudy
2:55 PM 46.4 °F 41.5 °F 42.8 °F 87% 30.27 in 4.3 mi SSW 10.4 mph - N/A   Mostly Cloudy
3:25 PM 46.4 °F 41.9 °F 42.8 °F 87% 30.27 in 4.3 mi SSW 9.2 mph - N/A   Mostly Cloudy
3:55 PM 46.4 °F 41.5 °F 42.8 °F 87% 30.27 in 6.2 mi SSW 10.4 mph - N/A   Mostly Cloudy
4:00 PM 47 °F - 43 °F 80% 30.30 in 6 mi SSW 11.2 mph - -   Mostly Cloudy
4:25 PM 46.4 °F 41.9 °F 42.8 °F 87% 30.27 in 5.6 mi SSW 9.2 mph - N/A   Mostly Cloudy
4:55 PM 46.4 °F 42.4 °F 42.8 °F 87% 30.27 in 5.0 mi South 8.1 mph - N/A   Mostly Cloudy
5:25 PM 46.4 °F 41.9 °F 42.8 °F 87% 30.27 in 5.6 mi SSW 9.2 mph - N/A   Mostly Cloudy
5:55 PM 44.6 °F 39.7 °F 42.8 °F 93% 30.27 in 5.6 mi SSW 9.2 mph - N/A   Mostly Cloudy
6:07 PM 44.6 °F 40.7 °F 42.8 °F 93% 30.27 in 5.6 mi SSW 6.9 mph - N/A   Mostly Cloudy
6:25 PM 44.6 °F 40.2 °F 42.8 °F 93% 30.27 in 5.6 mi SSW 8.1 mph - N/A   Mostly Cloudy
6:55 PM 44.6 °F 39.2 °F 42.8 °F 93% 30.27 in 5.6 mi SSW 10.4 mph - N/A   Mostly Cloudy
7:00 PM 45 °F - 43 °F 88% 30.30 in 6 mi SSW 8.9 mph - -   Mostly Cloudy
7:25 PM 44.6 °F 40.2 °F 42.8 °F 93% 30.27 in 5.0 mi South 8.1 mph - N/A   Mostly Cloudy
7:32 PM 44.6 °F 40.2 °F 42.8 °F 93% 30.27 in 5.0 mi SSW 8.1 mph - N/A   Mostly Cloudy
7:55 PM 44.6 °F 39.7 °F 42.8 °F 93% 30.27 in 4.3 mi SSW 9.2 mph - N/A   Mostly Cloudy
8:25 PM 44.6 °F 39.7 °F 42.8 °F 93% 30.27 in 4.3 mi SSW 9.2 mph - N/A   Mostly Cloudy
8:55 PM 44.6 °F 40.2 °F 42.8 °F 93% 30.27 in 3.7 mi South 8.1 mph - N/A   Mostly Cloudy
9:25 PM 44.6 °F 40.2 °F 42.8 °F 93% 30.27 in 3.7 mi SSW 8.1 mph - N/A   Mostly Cloudy
9:55 PM 44.6 °F 39.7 °F 42.8 °F 93% 30.27 in 3.7 mi SSW 9.2 mph - N/A   Mostly Cloudy
10:00 PM 45 °F - 43 °F 89% 30.29 in 4 mi SSW 8.9 mph - -   Mostly Cloudy
10:25 PM 44.6 °F 39.2 °F 42.8 °F 93% 30.27 in 3.7 mi SSW 10.4 mph - N/A   Mostly Cloudy
10:55 PM 44.6 °F 39.7 °F 42.8 °F 93% 30.24 in 3.1 mi SSW 9.2 mph - N/A   Mostly Cloudy
11:25 PM 44.6 °F 40.2 °F 42.8 °F 93% 30.24 in 3.1 mi SSW 8.1 mph - N/A   Mostly Cloudy
11:55 PM 44.6 °F 38.8 °F 42.8 °F 93% 30.24 in 3.1 mi SSW 11.5 mph - N/A   Mostly Cloudy